| time (UTC) | temp C | wind direction | speed KPH | gust KPH | rain 1hr cm | rain 24hr cm | rain mn cm | humidity % | barometer mb |
| 20260505122514 | 11 | 155 | 0.0 | 0.0 | 0.00 | 0.00 | 0.00 | 93 | 1015.8 |
| 20260505122010 | 11 | 154 | 0.0 | 0.0 | 0.00 | 0.00 | 0.00 | 93 | 1015.8 |
| 20260505121507 | 11 | 154 | 0.0 | 1.6 | 0.00 | 0.00 | 0.00 | 93 | 1015.8 |
| 20260505121003 | 11 | 150 | 0.0 | 1.6 | 0.00 | 0.00 | 0.00 | 93 | 1015.5 |
| 20260505120500 | 11 | 153 | 0.0 | 1.6 | 0.00 | 0.00 | 0.00 | 93 | 1015.7 |
| 20260505115958 | 11 | 178 | 1.6 | 1.6 | 0.00 | 0.00 | 0.00 | 93 | 1015.7 |
| 20260505115455 | 11 | 153 | 0.0 | 0.0 | 0.00 | 0.00 | 0.00 | 93 | 1015.7 |
| 20260505114953 | 11 | 152 | 0.0 | 1.6 | 0.00 | 0.00 | 0.00 | 93 | 1015.7 |
| 20260505114449 | 11 | 169 | 0.0 | 1.6 | 0.00 | 0.00 | 0.00 | 93 | 1015.7 |
| 20260505113946 | 11 | 166 | 1.6 | 1.6 | 0.00 | 0.00 | 0.00 | 93 | 1015.6 |
| 20260505113442 | 11 | 153 | 0.0 | 0.0 | 0.00 | 0.00 | 0.00 | 93 | 1015.5 |
| 20260505112938 | 11 | 178 | 1.6 | 3.2 | 0.00 | 0.00 | 0.00 | 93 | 1015.6 |
| 20260505112436 | 11 | 153 | 1.6 | 3.2 | 0.00 | 0.00 | 0.00 | 93 | 1015.5 |
| 20260505111932 | 11 | 270 | 3.2 | 4.8 | 0.00 | 0.00 | 0.00 | 93 | 1015.3 |
| 20260505111426 | 11 | 256 | 4.8 | 4.8 | 0.00 | 0.00 | 0.00 | 93 | 1015.7 |
| 20260505110923 | 11 | 218 | 1.6 | 3.2 | 0.00 | 0.00 | 0.00 | 93 | 1015.5 |
| 20260505110420 | 11 | 180 | 1.6 | 1.6 | 0.00 | 0.00 | 0.00 | 93 | 1015.4 |
| 20260505101851 | 11 | 199 | 3.2 | 3.2 | 0.00 | 0.00 | 0.00 | 93 | 1015.1 |
| 20260505101346 | 11 | 218 | 6.4 | 8.0 | 0.00 | 0.00 | 0.00 | 93 | 1015.1 |
| 20260505100842 | 11 | 162 | 1.6 | 1.6 | 0.00 | 0.00 | 0.00 | 93 | 1015.1 |
| 20260505100339 | 11 | 161 | 1.6 | 4.8 | 0.00 | 0.00 | 0.00 | 93 | 1015.0 |
| 20260505095834 | 11 | 253 | 4.8 | 9.7 | 0.00 | 0.00 | 0.00 | 93 | 1014.9 |
| 20260505095332 | 11 | 279 | 6.4 | 8.0 | 0.00 | 0.00 | 0.00 | 93 | 1014.8 |
| 20260505094828 | 11 | 190 | 3.2 | 3.2 | 0.00 | 0.00 | 0.00 | 93 | 1014.9 |
| 20260505094325 | 11 | 205 | 4.8 | 8.0 | 0.00 | 0.00 | 0.00 | 93 | 1015.1 |
| 20260505093820 | 11 | 165 | 1.6 | 3.2 | 0.00 | 0.00 | 0.00 | 93 | 1014.9 |
| 20260505093319 | 11 | 241 | 4.8 | 4.8 | 0.00 | 0.00 | 0.00 | 93 | 1014.9 |
| 20260505092815 | 11 | 277 | 4.8 | 9.7 | 0.00 | 0.00 | 0.00 | 93 | 1014.9 |
| 20260505092314 | 11 | 201 | 3.2 | 3.2 | 0.00 | 0.00 | 0.00 | 93 | 1014.9 |
| 20260505091810 | 11 | 178 | 1.6 | 3.2 | 0.00 | 0.00 | 0.00 | 93 | 1015.0 |
| 20260505091308 | 11 | 188 | 1.6 | 1.6 | 0.00 | 0.00 | 0.00 | 93 | 1014.9 |
| 20260505090806 | 11 | 218 | 3.2 | 8.0 | 0.00 | 0.00 | 0.00 | 93 | 1014.9 |
| 20260505090304 | 11 | 189 | 1.6 | 4.8 | 0.00 | 0.00 | 0.00 | 93 | 1014.9 |
| 20260505085800 | 11 | 162 | 1.6 | 4.8 | 0.00 | 0.00 | 0.00 | 93 | 1014.7 |
| 20260505085259 | 11 | 227 | 1.6 | 4.8 | 0.00 | 0.00 | 0.00 | 92 | 1014.7 |
| 20260505084756 | 11 | 163 | 1.6 | 4.8 | 0.00 | 0.00 | 0.00 | 92 | 1014.6 |
| 20260505084255 | 11 | 168 | 1.6 | 4.8 | 0.00 | 0.00 | 0.00 | 92 | 1014.5 |
| 20260505083751 | 11 | 173 | 3.2 | 4.8 | 0.00 | 0.00 | 0.00 | 92 | 1014.6 |
| 20260505083248 | 11 | 173 | 3.2 | 3.2 | 0.00 | 0.00 | 0.00 | 91 | 1014.4 |
| 20260505082744 | 11 | 201 | 3.2 | 3.2 | 0.00 | 0.00 | 0.00 | 91 | 1014.6 |
| 20260505082241 | 11 | 168 | 3.2 | 4.8 | 0.00 | 0.00 | 0.00 | 90 | 1014.6 |
| 20260505081737 | 12 | 190 | 1.6 | 3.2 | 0.00 | 0.00 | 0.00 | 90 | 1014.3 |
| 20260505081235 | 12 | 283 | 3.2 | 4.8 | 0.00 | 0.00 | 0.00 | 90 | 1014.5 |
| 20260505080731 | 12 | 286 | 8.0 | 11.3 | 0.00 | 0.00 | 0.00 | 90 | 1014.4 |
| 20260505080227 | 12 | 333 | 6.4 | 9.7 | 0.00 | 0.00 | 0.00 | 90 | 1014.2 |
| 20260505075723 | 12 | 192 | 3.2 | 4.8 | 0.00 | 0.00 | 0.00 | 90 | 1014.2 |
| 20260505075220 | 12 | 247 | 4.8 | 4.8 | 0.00 | 0.00 | 0.00 | 90 | 1014.4 |
| 20260505074717 | 12 | 178 | 1.6 | 3.2 | 0.00 | 0.00 | 0.00 | 90 | 1014.2 |
| 20260505074214 | 12 | 158 | 3.2 | 3.2 | 0.00 | 0.00 | 0.00 | 89 | 1014.2 |
| 20260505073712 | 12 | 271 | 8.0 | 9.7 | 0.00 | 0.00 | 0.00 | 89 | 1014.1 |
| 20260505073210 | 12 | 189 | 3.2 | 8.0 | 0.00 | 0.00 | 0.00 | 88 | 1014.0 |
| 20260505072705 | 12 | 210 | 6.4 | 8.0 | 0.00 | 0.00 | 0.00 | 88 | 1014.1 |
| 20260505072202 | 12 | 235 | 4.8 | 8.0 | 0.00 | 0.00 | 0.00 | 88 | 1014.2 |
| 20260505071657 | 12 | 201 | 3.2 | 4.8 | 0.00 | 0.00 | 0.00 | 87 | 1014.1 |
| 20260505071155 | 12 | 217 | 6.4 | 8.0 | 0.00 | 0.00 | 0.00 | 87 | 1013.7 |
| 20260505070653 | 12 | 198 | 3.2 | 3.2 | 0.00 | 0.00 | 0.00 | 86 | 1014.1 |
| 20260505070149 | 13 | 255 | 4.8 | 4.8 | 0.00 | 0.00 | 0.00 | 85 | 1013.7 |
| 20260505065644 | 13 | 238 | 4.8 | 8.0 | 0.00 | 0.00 | 0.00 | 84 | 1013.5 |
| 20260505065142 | 13 | 251 | 6.4 | 8.0 | 0.00 | 0.00 | 0.00 | 83 | 1013.6 |
| 20260505064638 | 13 | 228 | 4.8 | 8.0 | 0.00 | 0.00 | 0.00 | 82 | 1013.5 |
| 20260505064136 | 13 | 295 | 4.8 | 9.7 | 0.00 | 0.00 | 0.00 | 81 | 1013.7 |
| 20260505063634 | 13 | 202 | 4.8 | 4.8 | 0.00 | 0.00 | 0.00 | 81 | 1013.6 |
| 20260505063130 | 13 | 168 | 3.2 | 8.0 | 0.00 | 0.00 | 0.00 | 82 | 1013.4 |
| 20260505062626 | 13 | 153 | 1.6 | 3.2 | 0.00 | 0.00 | 0.00 | 83 | 1013.3 |
| 20260505062124 | 13 | 248 | 3.2 | 3.2 | 0.00 | 0.00 | 0.00 | 83 | 1013.1 |
| 20260505061621 | 13 | 177 | 1.6 | 8.0 | 0.00 | 0.00 | 0.00 | 83 | 1013.2 |
| 20260505061119 | 13 | 220 | 4.8 | 8.0 | 0.00 | 0.00 | 0.00 | 83 | 1013.0 |
| 20260505060616 | 13 | 229 | 3.2 | 4.8 | 0.00 | 0.00 | 0.00 | 82 | 1013.2 |
| 20260505060113 | 13 | 187 | 3.2 | 4.8 | 0.00 | 0.00 | 0.00 | 82 | 1013.2 |
| 20260505055608 | 13 | 315 | 6.4 | 9.7 | 0.00 | 0.00 | 0.00 | 83 | 1012.9 |
| 20260505055105 | 13 | 296 | 4.8 | 4.8 | 0.00 | 0.00 | 0.00 | 82 | 1013.2 |
| 20260505054602 | 13 | 159 | 3.2 | 9.7 | 0.00 | 0.00 | 0.00 | 81 | 1013.1 |
| 20260505054100 | 14 | 279 | 6.4 | 8.0 | 0.00 | 0.00 | 0.00 | 80 | 1013.1 |
| 20260505053557 | 14 | 180 | 3.2 | 8.0 | 0.00 | 0.00 | 0.00 | 80 | 1013.1 |
| 20260505053054 | 15 | 308 | 8.0 | 11.3 | 0.00 | 0.00 | 0.00 | 79 | 1013.1 |
| 20260505052550 | 15 | 314 | 8.0 | 12.9 | 0.00 | 0.00 | 0.00 | 78 | 1013.2 |
| 20260505052048 | 16 | 260 | 3.2 | 4.8 | 0.00 | 0.00 | 0.00 | 76 | 1012.9 |
| 20260505051544 | 16 | 134 | 3.2 | 12.9 | 0.00 | 0.00 | 0.00 | 74 | 1013.0 |
| 20260505051043 | 16 | 291 | 9.7 | 11.3 | 0.00 | 0.00 | 0.00 | 74 | 1012.9 |
| 20260505050541 | 16 | 354 | 3.2 | 4.8 | 0.00 | 0.00 | 0.00 | 75 | 1013.1 |
| 20260505041508 | 17 | 285 | 6.4 | 8.0 | 0.00 | 0.00 | 0.00 | 74 | 1012.4 |
| 20260505041006 | 17 | 226 | 3.2 | 4.8 | 0.00 | 0.00 | 0.00 | 73 | 1012.2 |
| 20260505040503 | 17 | 120 | 3.2 | 4.8 | 0.00 | 0.00 | 0.00 | 72 | 1012.0 |
| 20260505040000 | 18 | 190 | 3.2 | 4.8 | 0.00 | 0.00 | 0.00 | 73 | 1012.1 |
| 20260505035455 | 18 | 260 | 4.8 | 8.0 | 0.00 | 0.00 | 0.00 | 71 | 1012.0 |
| 20260505034953 | 18 | 334 | 4.8 | 8.0 | 0.00 | 0.00 | 0.00 | 72 | 1012.0 |
| 20260505034449 | 18 | 316 | 4.8 | 9.7 | 0.00 | 0.00 | 0.00 | 72 | 1012.1 |
| 20260505033947 | 18 | 214 | 3.2 | 4.8 | 0.00 | 0.00 | 0.00 | 73 | 1011.9 |
| 20260505033443 | 18 | 264 | 4.8 | 4.8 | 0.00 | 0.00 | 0.00 | 72 | 1011.7 |
| 20260505032942 | 19 | 212 | 3.2 | 3.2 | 0.00 | 0.00 | 0.00 | 72 | 1011.6 |
| 20260505032439 | 20 | 295 | 4.8 | 8.0 | 0.00 | 0.00 | 0.00 | 71 | 1011.5 |
| 20260505031935 | 20 | 246 | 3.2 | 3.2 | 0.00 | 0.00 | 0.00 | 69 | 1011.4 |
| 20260505031432 | 20 | 182 | 0.0 | 1.6 | 0.00 | 0.00 | 0.00 | 68 | 1011.5 |
| 20260505030929 | 20 | 264 | 6.4 | 8.0 | 0.00 | 0.00 | 0.00 | 68 | 1011.3 |
| 20260505030424 | 20 | 211 | 4.8 | 4.8 | 0.00 | 0.00 | 0.00 | 67 | 1011.4 |
| 20260505025920 | 21 | 247 | 6.4 | 8.0 | 0.00 | 0.00 | 0.00 | 67 | 1011.3 |
| 20260505025418 | 21 | 168 | 1.6 | 3.2 | 0.00 | 0.00 | 0.00 | 66 | 1011.1 |
| 20260505024917 | 21 | 154 | 3.2 | 8.0 | 0.00 | 0.00 | 0.00 | 65 | 1011.3 |
| 20260505024414 | 22 | 171 | 1.6 | 3.2 | 0.00 | 0.00 | 0.00 | 64 | 1011.2 |
| 20260505023910 | 22 | 167 | 1.6 | 1.6 | 0.00 | 0.00 | 0.00 | 63 | 1011.0 |
| 20260505023408 | 22 | 177 | 1.6 | 3.2 | 0.00 | 0.00 | 0.00 | 63 | 1011.1 |
| 20260505022905 | 22 | 180 | 3.2 | 3.2 | 0.00 | 0.00 | 0.00 | 61 | 1011.1 |
| 20260505022401 | 22 | 202 | 1.6 | 3.2 | 0.00 | 0.00 | 0.00 | 61 | 1010.9 |
| 20260505021859 | 22 | 233 | 4.8 | 4.8 | 0.00 | 0.00 | 0.00 | 61 | 1011.1 |
| 20260505021355 | 22 | 205 | 4.8 | 8.0 | 0.00 | 0.00 | 0.00 | 60 | 1011.1 |
| 20260505020851 | 23 | 177 | 3.2 | 3.2 | 0.00 | 0.00 | 0.00 | 58 | 1011.1 |
| 20260505020347 | 23 | 186 | 1.6 | 4.8 | 0.00 | 0.00 | 0.00 | 58 | 1011.1 |
| 20260505015844 | 23 | 149 | 1.6 | 1.6 | 0.00 | 0.00 | 0.00 | 58 | 1011.1 |
| 20260505015341 | 23 | 180 | 1.6 | 11.3 | 0.00 | 0.00 | 0.00 | 59 | 1010.9 |
| 20260505014839 | 23 | 135 | 1.6 | 12.9 | 0.00 | 0.00 | 0.00 | 60 | 1011.2 |
| 20260505014335 | 23 | 199 | 6.4 | 12.9 | 0.00 | 0.00 | 0.00 | 59 | 1011.1 |
| 20260505013832 | 25 | 187 | 1.6 | 3.2 | 0.00 | 0.00 | 0.00 | 58 | 1011.1 |
| 20260505013329 | 24 | 175 | 3.2 | 12.9 | 0.00 | 0.00 | 0.00 | 59 | 1011.0 |
| 20260505012828 | 24 | 190 | 4.8 | 9.7 | 0.00 | 0.00 | 0.00 | 58 | 1011.0 |
| 20260505012325 | 24 | 190 | 3.2 | 12.9 | 0.00 | 0.00 | 0.00 | 58 | 1011.1 |
| 20260505011820 | 24 | 189 | 1.6 | 8.0 | 0.00 | 0.00 | 0.00 | 60 | 1011.0 |
| 20260505011318 | 24 | 188 | 4.8 | 8.0 | 0.00 | 0.00 | 0.00 | 59 | 1011.3 |
| 20260505010814 | 24 | 177 | 8.0 | 12.9 | 0.00 | 0.00 | 0.00 | 59 | 1011.2 |
| 20260505010310 | 24 | 211 | 6.4 | 12.9 | 0.00 | 0.00 | 0.00 | 59 | 1011.2 |
| 20260505005806 | 25 | 146 | 3.2 | 11.3 | 0.00 | 0.00 | 0.00 | 59 | 1011.3 |
| 20260505005304 | 25 | 240 | 8.0 | 12.9 | 0.00 | 0.00 | 0.00 | 58 | 1011.2 |
| 20260505004800 | 25 | 207 | 4.8 | 12.9 | 0.00 | 0.00 | 0.00 | 59 | 1011.3 |
| 20260505004256 | 25 | 146 | 3.2 | 9.7 | 0.00 | 0.00 | 0.00 | 58 | 1011.3 |
| 20260505003754 | 25 | 190 | 3.2 | 8.0 | 0.00 | 0.00 | 0.00 | 59 | 1011.2 |
| 20260505003252 | 25 | 180 | 3.2 | 8.0 | 0.00 | 0.00 | 0.00 | 59 | 1011.2 |
| 20260505002747 | 25 | 190 | 4.8 | 9.7 | 0.00 | 0.00 | 0.00 | 59 | 1011.3 |
| 20260505002245 | 25 | 167 | 6.4 | 8.0 | 0.00 | 0.00 | 0.00 | 58 | 1011.2 |
| 20260505001743 | 25 | 187 | 4.8 | 8.0 | 0.00 | 0.00 | 0.00 | 58 | 1011.3 |
| 20260505001240 | 25 | 142 | 6.4 | 9.7 | 0.00 | 0.00 | 0.00 | 57 | 1011.5 |
| 20260505000737 | 25 | 214 | 6.4 | 11.3 | 0.00 | 0.00 | 0.00 | 59 | 1011.3 |
| 20260505000235 | 25 | 246 | 8.0 | 11.3 | 0.00 | 0.00 | 0.00 | 58 | 1011.5 |
| 20260504235731 | 25 | 160 | 3.2 | 11.3 | 0.00 | 0.00 | 0.00 | 60 | 1011.2 |
| 20260504235227 | 25 | 149 | 4.8 | 9.7 | 0.00 | 0.00 | 0.00 | 59 | 1011.4 |
| 20260504234725 | 25 | 206 | 4.8 | 11.3 | 0.00 | 0.00 | 0.00 | 59 | 1011.1 |
| 20260504234222 | 25 | 170 | 3.2 | 8.0 | 0.00 | 0.00 | 0.00 | 59 | 1011.3 |
| 20260504233718 | 25 | 157 | 3.2 | 8.0 | 0.00 | 0.00 | 0.00 | 57 | 1011.3 |
| 20260504233214 | 25 | 155 | 1.6 | 8.0 | 0.00 | 0.00 | 0.00 | 59 | 1011.4 |
| 20260504232711 | 24 | 183 | 8.0 | 12.9 | 0.00 | 0.00 | 0.00 | 58 | 1011.6 |
| 20260504232208 | 25 | 223 | 8.0 | 12.9 | 0.00 | 0.00 | 0.00 | 57 | 1011.4 |
| 20260504231705 | 25 | 215 | 6.4 | 12.9 | 0.00 | 0.00 | 0.00 | 58 | 1011.5 |
| 20260504231201 | 24 | 202 | 6.4 | 11.3 | 0.00 | 0.00 | 0.00 | 59 | 1011.3 |
| 20260504230657 | 24 | 190 | 4.8 | 9.7 | 0.00 | 0.00 | 0.00 | 60 | 1011.7 |
| 20260504230156 | 25 | 176 | 6.4 | 14.5 | 0.00 | 0.00 | 0.00 | 59 | 1011.6 |
| 20260504225655 | 24 | 201 | 4.8 | 9.7 | 0.00 | 0.00 | 0.00 | 59 | 1011.5 |
| 20260504225150 | 23 | 208 | 9.7 | 12.9 | 0.00 | 0.00 | 0.00 | 59 | 1011.7 |
| 20260504224648 | 25 | 194 | 4.8 | 9.7 | 0.00 | 0.00 | 0.00 | 58 | 1011.7 |
| 20260504224144 | 24 | 171 | 4.8 | 8.0 | 0.00 | 0.00 | 0.00 | 60 | 1012.0 |
| 20260504223641 | 24 | 205 | 6.4 | 9.7 | 0.00 | 0.00 | 0.00 | 57 | 1011.9 |
| 20260504223136 | 24 | 161 | 3.2 | 11.3 | 0.00 | 0.00 | 0.00 | 58 | 1012.0 |
| 20260504222634 | 23 | 205 | 4.8 | 11.3 | 0.00 | 0.00 | 0.00 | 61 | 1011.8 |
| 20260504222131 | 24 | 274 | 6.4 | 9.7 | 0.00 | 0.00 | 0.00 | 57 | 1012.1 |
| 20260504221628 | 24 | 214 | 6.4 | 12.9 | 0.00 | 0.00 | 0.00 | 58 | 1011.9 |
| 20260504221125 | 25 | 153 | 4.8 | 9.7 | 0.00 | 0.00 | 0.00 | 55 | 1012.2 |
| 20260504220621 | 24 | 162 | 1.6 | 8.0 | 0.00 | 0.00 | 0.00 | 58 | 1012.2 |
| 20260504220119 | 22 | 182 | 4.8 | 9.7 | 0.00 | 0.00 | 0.00 | 60 | 1012.3 |
| 20260504215615 | 22 | 125 | 4.8 | 8.0 | 0.00 | 0.00 | 0.00 | 63 | 1012.4 |
| 20260504215113 | 23 | 130 | 0.0 | 9.7 | 0.00 | 0.00 | 0.00 | 62 | 1012.3 |
| 20260504214608 | 22 | 154 | 6.4 | 8.0 | 0.00 | 0.00 | 0.00 | 64 | 1012.3 |
| 20260504214105 | 21 | 217 | 3.2 | 8.0 | 0.00 | 0.00 | 0.00 | 65 | 1012.2 |
| 20260504213601 | 22 | 100 | 8.0 | 11.3 | 0.00 | 0.00 | 0.00 | 66 | 1012.2 |
| 20260504213058 | 22 | 166 | 1.6 | 8.0 | 0.00 | 0.00 | 0.00 | 63 | 1012.6 |
| 20260504212554 | 22 | 227 | 8.0 | 9.7 | 0.00 | 0.00 | 0.00 | 61 | 1012.4 |
| 20260504212052 | 22 | 131 | 1.6 | 8.0 | 0.00 | 0.00 | 0.00 | 61 | 1012.7 |
| 20260504211549 | 22 | 189 | 3.2 | 12.9 | 0.00 | 0.00 | 0.00 | 63 | 1012.7 |
| 20260504211045 | 22 | 160 | 6.4 | 11.3 | 0.00 | 0.00 | 0.00 | 62 | 1013.0 |
| 20260504210543 | 21 | 142 | 4.8 | 8.0 | 0.00 | 0.00 | 0.00 | 65 | 1013.1 |
| 20260504210039 | 21 | 158 | 0.0 | 3.2 | 0.00 | 0.00 | 0.00 | 67 | 1012.9 |
| 20260504205537 | 21 | 150 | 1.6 | 9.7 | 0.00 | 0.00 | 0.00 | 64 | 1013.0 |
| 20260504205035 | 21 | 189 | 4.8 | 4.8 | 0.00 | 0.00 | 0.00 | 65 | 1013.2 |
| 20260504204533 | 21 | 96 | 9.7 | 11.3 | 0.00 | 0.00 | 0.00 | 64 | 1013.3 |
| 20260504204032 | 21 | 284 | 4.8 | 9.7 | 0.00 | 0.00 | 0.00 | 66 | 1013.2 |
| 20260504203529 | 20 | 159 | 1.6 | 8.0 | 0.00 | 0.00 | 0.00 | 67 | 1013.5 |
| 20260504203027 | 20 | 98 | 8.0 | 11.3 | 0.00 | 0.00 | 0.00 | 69 | 1013.5 |
| 20260504202522 | 20 | 136 | 1.6 | 8.0 | 0.00 | 0.00 | 0.00 | 69 | 1013.4 |
| 20260504202019 | 20 | 179 | 3.2 | 4.8 | 0.00 | 0.00 | 0.00 | 68 | 1013.4 |
| 20260504201516 | 21 | 214 | 1.6 | 3.2 | 0.00 | 0.00 | 0.00 | 65 | 1013.5 |
| 20260504201014 | 20 | 154 | 1.6 | 4.8 | 0.00 | 0.00 | 0.00 | 67 | 1013.6 |
| 20260504200510 | 21 | 155 | 6.4 | 9.7 | 0.00 | 0.00 | 0.00 | 65 | 1013.7 |
| 20260504200007 | 20 | 209 | 3.2 | 8.0 | 0.00 | 0.00 | 0.00 | 67 | 1013.6 |
| 20260504195503 | 20 | 102 | 4.8 | 9.7 | 0.00 | 0.00 | 0.00 | 68 | 1013.6 |
| 20260504195000 | 20 | 165 | 0.0 | 8.0 | 0.00 | 0.00 | 0.00 | 68 | 1013.6 |
| 20260504194455 | 20 | 115 | 4.8 | 8.0 | 0.00 | 0.00 | 0.00 | 68 | 1013.8 |
| 20260504193951 | 20 | 181 | 1.6 | 4.8 | 0.00 | 0.00 | 0.00 | 67 | 1013.8 |
| 20260504193449 | 20 | 149 | 0.0 | 4.8 | 0.00 | 0.00 | 0.00 | 68 | 1013.8 |
| 20260504192948 | 20 | 147 | 3.2 | 3.2 | 0.00 | 0.00 | 0.00 | 66 | 1013.6 |
| 20260504192444 | 18 | 131 | 1.6 | 3.2 | 0.00 | 0.00 | 0.00 | 72 | 1013.8 |
| 20260504191943 | 18 | 78 | 4.8 | 9.7 | 0.00 | 0.00 | 0.00 | 73 | 1013.8 |
| 20260504191441 | 18 | 113 | 3.2 | 12.9 | 0.00 | 0.00 | 0.00 | 72 | 1014.0 |
| 20260504190936 | 19 | 101 | 6.4 | 11.3 | 0.00 | 0.00 | 0.00 | 70 | 1014.1 |
| 20260504190432 | 18 | 155 | 1.6 | 1.6 | 0.00 | 0.00 | 0.00 | 69 | 1013.7 |
| 20260504185929 | 18 | 194 | 8.0 | 9.7 | 0.00 | 0.00 | 0.00 | 67 | 1014.1 |
| 20260504185426 | 19 | 194 | 12.9 | 14.5 | 0.00 | 0.00 | 0.00 | 66 | 1014.1 |
| 20260504184922 | 18 | 245 | 4.8 | 8.0 | 0.00 | 0.00 | 0.00 | 71 | 1014.1 |
| 20260504184418 | 17 | 157 | 0.0 | 8.0 | 0.00 | 0.00 | 0.00 | 74 | 1014.2 |
| 20260504183914 | 16 | 186 | 1.6 | 8.0 | 0.00 | 0.00 | 0.00 | 75 | 1014.1 |
| 20260504183411 | 16 | 123 | 1.6 | 4.8 | 0.00 | 0.00 | 0.00 | 77 | 1014.1 |
| 20260504182909 | 16 | 126 | 4.8 | 4.8 | 0.00 | 0.00 | 0.00 | 77 | 1014.2 |
| 20260504182406 | 17 | 84 | 1.6 | 9.7 | 0.00 | 0.00 | 0.00 | 77 | 1014.2 |
| 20260504181903 | 17 | 151 | 1.6 | 8.0 | 0.00 | 0.00 | 0.00 | 76 | 1014.0 |
| 20260504181400 | 17 | 150 | 4.8 | 8.0 | 0.00 | 0.00 | 0.00 | 74 | 1014.2 |
| 20260504180859 | 16 | 144 | 1.6 | 3.2 | 0.00 | 0.00 | 0.00 | 79 | 1014.2 |
| 20260504180357 | 15 | 149 | 6.4 | 9.7 | 0.00 | 0.00 | 0.00 | 80 | 1014.1 |
| 20260504175855 | 16 | 171 | 3.2 | 4.8 | 0.00 | 0.00 | 0.00 | 77 | 1014.2 |
| 20260504175351 | 16 | 157 | 1.6 | 4.8 | 0.00 | 0.00 | 0.00 | 77 | 1014.2 |
| 20260504174850 | 16 | 238 | 3.2 | 4.8 | 0.00 | 0.00 | 0.00 | 79 | 1014.2 |
| 20260504174347 | 16 | 246 | 6.4 | 9.7 | 0.00 | 0.00 | 0.00 | 78 | 1014.3 |
| 20260504173844 | 16 | 175 | 1.6 | 4.8 | 0.00 | 0.00 | 0.00 | 79 | 1014.2 |
| 20260504173340 | 16 | 155 | 0.0 | 8.0 | 0.00 | 0.00 | 0.00 | 77 | 1014.1 |
| 20260504172837 | 16 | 164 | 3.2 | 3.2 | 0.00 | 0.00 | 0.00 | 76 | 1014.0 |
| 20260504172334 | 15 | 187 | 3.2 | 4.8 | 0.00 | 0.00 | 0.00 | 80 | 1014.1 |
| 20260504171830 | 15 | 190 | 4.8 | 4.8 | 0.00 | 0.00 | 0.00 | 79 | 1014.2 |
| 20260504171327 | 15 | 255 | 3.2 | 8.0 | 0.00 | 0.00 | 0.00 | 81 | 1013.9 |
| 20260504170824 | 15 | 170 | 4.8 | 9.7 | 0.00 | 0.00 | 0.00 | 82 | 1014.1 |
| 20260504170321 | 15 | 260 | 6.4 | 9.7 | 0.00 | 0.00 | 0.00 | 83 | 1014.0 |
| 20260504160239 | 14 | 332 | 4.8 | 4.8 | 0.00 | 0.00 | 0.00 | 83 | 1014.0 |
| 20260504150705 | 14 | 320 | 6.4 | 8.0 | 0.00 | 0.00 | 0.00 | 84 | 1013.7 |
| 20260504150202 | 14 | 322 | 4.8 | 8.0 | 0.00 | 0.00 | 0.00 | 84 | 1013.7 |
| 20260504141131 | 13 | 189 | 3.2 | 3.2 | 0.00 | 0.00 | 0.00 | 88 | 1013.0 |
| 20260504140627 | 12 | 209 | 4.8 | 8.0 | 0.00 | 0.00 | 0.00 | 88 | 1013.0 |
| 20260504140123 | 12 | 243 | 1.6 | 3.2 | 0.00 | 0.00 | 0.00 | 89 | 1012.9 |
| 20260504130551 | 11 | 234 | 4.8 | 4.8 | 0.00 | 0.00 | 0.00 | 93 | 1012.2 |